User: anonymous   Login
Location: Unspecified
(0.0000°N, 0.0000°E)
Time: 05:11:49
(UTC+02:00)
Language:

Cosmos 1125 Rocket - Orbit

View from above orbital plane
View from above orbital plane
View from above satellite
View from above satellite

Ground track
Ground track

The orbit data is extracted from the following two-line orbital elements,

1 11511U 79078B   16274.51584576 -.00000030  00000-0 -11717-5 0  9998
2 11511  74.0358  72.5608 0015440  16.5258 343.6395 14.36732601941322
Epoch (UTC): 30 September 2016 12:22:49
Eccentricity: 0.0015440
inclination: 74.0358°
perigee height: 758 km
apogee height: 780 km
right ascension of ascending node: 72.5608°
argument of perigee: 16.5258°
revolutions per day: 14.36732601
mean anomaly at epoch: 343.6395°
orbit number at epoch: 94132

The dashed part of the orbit path shows where the satellite is in the earth's shadow,  

DLR